Location: Jackson
(42.2460°N, 84.4010°W)
Time: 11:39:13
(UTC-04:00)

Injun/Solrad 3 - Pass Details

Date: 10 February 2026
Orbit: 871 x 985 km, 66.8° (Epoch: 16 March)

Event Time Altitude Azimuth Distance (km) Brightness Sun altitude
Rises 20:30:28 0° 337° (NNW) 3,548 11.3 -27.6°
Reaches altitude 10° 20:33:48 10° 355° (N) 2,626 10.4 -28.2°
Enters shadow 20:35:51 16° 13° (NNE) 2,233 9.8 -28.6°
